This is the latest recevied weather packets stored in our database for station/object KT5AL. If no packets are shown the sender has not sent any weather packets the latest 10 day(s).
| Time | Temp. | Humidity | Pressure | Rain* | Wind** | Luminosity | Snow |
|---|---|---|---|---|---|---|---|
| 1777504206 | 16.67° C | 83% | 1015.1 hPa | 0 mm | - | - | - |
| 1777503904 | 16.67° C | 84% | 1015.1 hPa | 0 mm | - | - | - |
| 1777503607 | 16.67° C | 84% | 1015.1 hPa | 0 mm | - | - | - |
| 1777503303 | 16.11° C | 83% | 1015.4 hPa | 0 mm | - | - | - |
| 1777503007 | 16.11° C | 85% | 1015.4 hPa | 0 mm | - | - | - |
| 1777502704 | 16.11° C | 86% | 1015.4 hPa | 0 mm | - | - | - |
| 1777502407 | 16.11° C | 84% | 1015.4 hPa | 0 mm | - | - | - |
| 1777502105 | 16.11° C | 85% | 1015.8 hPa | 0 mm | - | - | - |
| 1777501807 | 16.11° C | 84% | 1015.8 hPa | 0 mm | - | - | - |
| 1777501505 | 16.11° C | 84% | 1015.1 hPa | 0 mm | - | - | - |
| 1777501207 | 16.11° C | 84% | 1015.1 hPa | 0 mm | - | - | - |
| 1777500904 | 16.11° C | 84% | 1015.1 hPa | 0 mm | - | - | - |
| 1777500607 | 16.11° C | 84% | 1015.1 hPa | 0 mm | - | - | - |
| 1777500303 | 16.11° C | 85% | 1015.1 hPa | 0 mm | - | - | - |
| 1777500006 | 16.11° C | 85% | 1015.1 hPa | 0 mm | - | - | - |
| 1777499405 | 16.11° C | 85% | 1015.1 hPa | 0 mm | - | - | - |
| 1777499108 | 16.11° C | 85% | 1015.1 hPa | 0 mm | - | - | - |
| 1777498806 | 16.11° C | 85% | 1015.1 hPa | 0 mm | - | - | - |
| 1777498503 | 16.11° C | 85% | 1015.4 hPa | 0 mm | - | - | - |
| 1777498206 | 16.11° C | 87% | 1015.4 hPa | 0 mm | - | - | - |
| 1777497909 | 16.11° C | 84% | 1014.4 hPa | 0 mm | - | - | - |
| 1777497606 | 16.11° C | 85% | 1014.4 hPa | 0 mm | - | - | - |
| 1777497309 | 16.11° C | 84% | 1014.8 hPa | 0 mm | - | - | - |
| 1777497006 | 16.11° C | 85% | 1014.8 hPa | 0 mm | - | - | - |
| 1777496703 | 16.11° C | 85% | 1015.4 hPa | 0 mm | - | - | - |
* Rain latest hour (hover to see other rain measurements)
** Current wind speed in m/s (hover to see current wind gust speed)